FW8343 Weather Reports


Display with metric or nautical units.
time (UTC)temp
F
wind
direction
speed
MPH
gust
MPH
rain 1hr
in
rain 24hr
in
rain mn
in
humidity
%
barometer
mb
20260505031015 41 264 2.0 6.0 0.00 0.00 0.00 57 1003.6
20260505030511 41 252 2.0 8.0 0.00 0.00 0.00 56 1003.5
20260505030032 41 286 2.0 8.0 0.00 0.00 0.00 56 1003.5
20260505025510 41 276 3.0 8.0 0.00 0.00 0.00 56 1003.5
20260505025011 41 275 2.0 8.0 0.00 0.00 0.00 56 1003.5
20260505024529 41 269 3.0 11.0 0.00 0.00 0.00 54 1003.5
20260505024008 42 284 3.0 11.0 0.00 0.00 0.00 55 1003.5
20260505023510 42 253 4.0 9.0 0.00 0.00 0.00 53 1003.4
20260505023031 41 273 3.0 7.0 0.00 0.00 0.00 55 1003.4
20260505022510 42 265 2.0 8.0 0.00 0.00 0.00 55 1003.3
20260505022013 42 278 2.0 11.0 0.00 0.00 0.00 55 1003.3
20260505021532 42 274 2.0 11.0 0.00 0.00 0.00 54 1003.1
20260505021007 42 245 4.0 11.0 0.00 0.00 0.00 55 1003.0
20260505020512 42 267 4.0 10.0 0.00 0.00 0.00 54 1002.9
20260505020030 42 269 3.0 9.0 0.00 0.00 0.00 54 1002.9
20260505015511 42 286 4.0 9.0 0.00 0.00 0.00 54 1002.9
20260505015014 42 278 4.0 10.0 0.00 0.00 0.00 54 1002.8
20260505014530 42 261 3.0 10.0 0.00 0.00 0.00 54 1002.8
20260505014011 42 259 4.0 10.0 0.00 0.00 0.00 54 1002.8
20260505013510 42 267 4.0 10.0 0.00 0.00 0.00 54 1002.7
20260505013030 42 300 2.0 11.0 0.00 0.00 0.00 54 1002.5
20260505012511 43 273 5.0 11.0 0.00 0.00 0.00 54 1002.6
20260505012010 43 292 5.0 11.0 0.00 0.00 0.00 53 1002.6
20260505011553 43 269 4.0 12.0 0.00 0.00 0.00 54 1002.5
20260505011010 43 302 5.0 12.0 0.00 0.00 0.00 55 1002.4
20260505010517 44 298 5.0 14.0 0.00 0.00 0.00 54 1002.4
20260505010029 44 285 5.0 14.0 0.00 0.00 0.00 54 1002.3
20260505005511 44 228 6.0 14.0 0.00 0.00 0.00 54 1002.3
20260505005010 44 250 5.0 12.0 0.00 0.00 0.00 55 1002.2
20260505004530 44 240 4.0 12.0 0.00 0.00 0.00 55 1002.2
20260505004009 44 280 5.0 10.0 0.00 0.00 0.00 54 1002.1
20260505003512 44 262 4.0 11.0 0.00 0.00 0.00 55 1002.1
20260505003030 44 265 4.0 11.0 0.00 0.00 0.00 55 1002.0
20260505002511 44 274 7.0 14.0 0.00 0.00 0.00 53 1001.9
20260505002016 45 276 7.0 14.0 0.00 0.00 0.00 51 1001.8
20260505001532 45 258 7.0 14.0 0.00 0.00 0.00 50 1001.7
20260505001015 46 298 5.0 11.0 0.00 0.00 0.00 50 1001.7
20260505000514 46 252 5.0 11.0 0.00 0.00 0.00 52 1001.6
20260505000038 47 297 3.0 11.0 0.00 0.00 0.00 54 1001.3
20260504235510 47 300 3.0 16.0 0.00 0.00 0.00 54 1001.4
20260504235011 47 249 4.0 16.0 0.00 0.00 0.00 54 1001.3
20260504234530 47 281 5.0 16.0 0.00 0.00 0.00 54 1001.2
20260504234010 47 255 5.0 16.0 0.00 0.00 0.00 55 1001.1
20260504233508 48 268 6.0 16.0 0.00 0.00 0.00 55 1001.1
20260504233031 48 277 5.0 13.0 0.00 0.00 0.00 56 1000.9
20260504232511 48 282 5.0 12.0 0.00 0.00 0.00 53 1000.9
20260504232015 49 248 3.0 11.0 0.00 0.00 0.00 53 1000.8
20260504231528 49 296 2.0 10.0 0.00 0.00 0.00 54 1000.6
20260504231009 49 290 3.0 12.0 0.00 0.00 0.00 51 1000.6
20260504230510 49 298 3.0 13.0 0.00 0.00 0.00 50 1000.4
20260504230033 50 286 6.0 13.0 0.00 0.00 0.00 50 1000.4
20260504225511 50 298 3.0 13.0 0.00 0.00 0.00 50 1000.5
20260504225013 50 278 5.0 13.0 0.00 0.00 0.00 48 1000.3
20260504224533 50 291 2.0 14.0 0.00 0.00 0.00 50 1000.3
20260504224010 50 271 3.0 15.0 0.00 0.00 0.00 49 1000.2
20260504223511 50 285 4.0 18.0 0.00 0.00 0.00 47 1000.2
20260504223030 51 246 4.0 18.0 0.00 0.00 0.00 47 1000.2
20260504222509 51 274 7.0 18.0 0.00 0.00 0.00 47 1000.1
20260504222012 51 269 6.0 15.0 0.00 0.00 0.00 46 1000.0
20260504221529 51 243 7.0 14.0 0.00 0.00 0.00 43 1000.0
20260504221017 52 290 4.0 12.0 0.00 0.00 0.00 45 999.8
20260504220514 52 248 3.0 12.0 0.00 0.00 0.00 47 999.7
20260504220034 52 302 6.0 13.0 0.00 0.00 0.00 46 999.6
20260504215510 51 285 4.0 15.0 0.00 0.00 0.00 48 999.6
20260504215014 52 301 5.0 16.0 0.00 0.00 0.00 46 999.6
20260504214529 52 277 5.0 16.0 0.00 0.00 0.00 46 999.5
20260504214007 52 279 6.0 16.0 0.00 0.00 0.00 44 999.6
20260504213514 53 242 7.0 15.0 0.00 0.00 0.00 46 999.5
20260504213034 53 290 5.0 19.0 0.00 0.00 0.00 43 999.2
20260504212515 54 270 7.0 19.0 0.00 0.00 0.00 43 999.2
20260504212010 54 259 6.0 13.0 0.00 0.00 0.00 46 999.1
20260504211528 53 286 5.0 13.0 0.00 0.00 0.00 46 998.9
20260504211009 53 352 4.0 13.0 0.00 0.00 0.00 47 999.0
20260504210511 53 294 5.0 13.0 0.00 0.00 0.00 46 998.9
20260504210028 54 198 4.0 13.0 0.00 0.00 0.00 47 998.7
20260504205511 54 259 5.0 15.0 0.00 0.00 0.00 46 998.6
20260504205014 54 256 6.0 15.0 0.00 0.00 0.00 46 998.7
20260504204527 54 289 5.0 14.0 0.00 0.00 0.00 47 998.6
20260504204012 53 310 5.0 15.0 0.00 0.00 0.00 46 998.5
20260504203514 53 275 5.0 15.0 0.00 0.00 0.00 46 998.5
20260504203031 54 286 8.0 17.0 0.00 0.00 0.00 45 998.3
20260504202509 54 291 7.0 17.0 0.00 0.00 0.00 45 998.4
20260504202013 54 230 8.0 17.0 0.00 0.00 0.00 44 998.4
20260504201528 54 259 7.0 16.0 0.00 0.00 0.00 44 998.2
20260504201013 54 287 4.0 14.0 0.00 0.00 0.00 46 998.1
20260504200511 55 275 5.0 14.0 0.00 0.00 0.00 46 998.0
20260504200030 56 261 4.0 16.0 0.00 0.00 0.00 44 998.0
20260504195510 57 307 5.0 16.0 0.00 0.00 0.00 45 997.8
20260504195012 56 272 6.0 16.0 0.00 0.00 0.00 44 997.7
20260504194533 56 269 7.0 17.0 0.00 0.00 0.00 45 997.7
20260504194009 56 270 6.0 17.0 0.00 0.00 0.00 48 997.4
20260504193511 57 270 7.0 17.0 0.00 0.00 0.00 47 997.6
20260504193029 57 267 7.0 15.0 0.00 0.00 0.00 43 997.4
20260504192510 57 305 7.0 19.0 0.00 0.00 0.00 44 997.2
20260504192013 57 257 5.0 19.0 0.00 0.00 0.00 45 997.2
20260504191531 58 297 7.0 19.0 0.00 0.00 0.00 43 997.1
20260504191012 59 244 6.0 13.0 0.00 0.00 0.00 44 997.0
20260504190513 58 217 4.0 13.0 0.00 0.00 0.00 47 996.9
20260504190030 58 252 7.0 15.0 0.00 0.00 0.00 45 996.9
20260504185510 58 281 7.0 15.0 0.00 0.00 0.00 45 996.8
20260504185012 58 269 5.0 13.0 0.00 0.00 0.00 45 996.7
20260504184530 58 306 4.0 14.0 0.00 0.00 0.00 49 996.7
20260504184014 58 306 5.0 15.0 0.00 0.00 0.00 47 996.7
20260504183514 58 304 6.0 15.0 0.00 0.00 0.00 47 996.4
20260504183029 58 291 5.0 15.0 0.00 0.00 0.00 46 996.4
20260504182513 58 281 4.0 14.0 0.00 0.00 0.00 50 996.4
20260504182015 57 289 6.0 14.0 0.00 0.00 0.00 48 996.2
20260504181531 57 190 6.0 14.0 0.00 0.00 0.00 46 996.3
20260504181012 58 271 7.0 15.0 0.00 0.00 0.00 45 996.3
20260504180515 59 252 8.0 15.0 0.00 0.00 0.00 46 996.1
20260504180029 58 279 6.0 15.0 0.00 0.00 0.00 50 996.1
20260504175517 57 209 6.0 12.0 0.00 0.00 0.00 49 996.0
20260504175017 57 260 5.0 13.0 0.00 0.00 0.00 49 995.8
20260504174532 57 279 5.0 13.0 0.00 0.00 0.00 50 995.9
20260504174014 58 237 7.0 13.0 0.00 0.00 0.00 48 995.8
20260504173512 58 288 7.0 13.0 0.00 0.00 0.00 49 995.9
20260504173029 59 238 4.0 11.0 0.00 0.00 0.00 51 995.9
20260504172511 58 271 4.0 17.0 0.00 0.00 0.00 54 995.9
20260504172016 57 236 8.0 17.0 0.00 0.00 0.00 50 995.8
20260504171544 58 266 7.0 15.0 0.00 0.00 0.00 49 995.9
20260504171013 57 274 8.0 15.0 0.00 0.00 0.00 50 995.8
20260504170513 56 271 6.0 16.0 0.00 0.00 0.00 52 995.9
20260504151013 53 266 6.0 18.0 0.00 0.00 0.00 62 994.7
20260504150513 53 259 8.0 18.0 0.00 0.00 0.00 61 994.6
20260504141013 55 284 6.0 13.0 0.00 0.00 0.00 61 994.2
20260504140510 56 269 4.0 9.0 0.00 0.00 0.00 62 993.9
20260504130512 57 264 4.0 13.0 0.00 0.00 0.00 58 993.5
20260504110508 57 215 8.0 25.0 0.00 0.00 0.00 45 992.3
20260504100514 57 223 4.0 16.0 0.00 0.00 0.00 48 993.7
20260504081529 57 217 8.0 18.0 0.00 0.00 0.00 50 995.9
20260504081013 57 212 8.0 18.0 0.00 0.00 0.00 49 996.0
20260504080511 57 176 8.0 17.0 0.00 0.00 0.00 53 996.2
20260504050510 55 202 3.0 8.0 0.00 0.00 0.00 50 1000.1
20260504045509 55 198 3.0 8.0 0.00 0.00 0.00 53 1000.5
20260504045013 55 203 2.0 8.0 0.00 0.00 0.00 50 1000.6
20260504044531 55 198 2.0 7.0 0.00 0.00 0.00 50 1000.7
20260504044010 55 225 3.0 10.0 0.00 0.00 0.00 49 1000.8
20260504043510 55 192 3.0 10.0 0.00 0.00 0.00 50 1000.9
20260504043043 55 196 3.0 10.0 0.00 0.00 0.00 51 1000.9
20260504042510 55 216 2.0 6.0 0.00 0.00 0.00 49 1001.1
20260504042013 55 224 3.0 6.0 0.00 0.00 0.00 50 1001.1
20260504041536 55 223 2.0 7.0 0.00 0.00 0.00 48 1001.2
20260504041009 55 219 3.0 7.0 0.00 0.00 0.00 50 1001.3
20260504040512 55 222 2.0 6.0 0.00 0.00 0.00 48 1001.4
20260504040032 56 213 2.0 7.0 0.00 0.00 0.00 48 1001.4
20260504035511 56 223 2.0 7.0 0.00 0.00 0.00 49 1001.6
20260504035014 55 202 2.0 8.0 0.00 0.00 0.00 50 1001.6
20260504034534 55 198 3.0 8.0 0.00 0.00 0.00 52 1001.7
20260504034013 55 196 2.0 6.0 0.00 0.00 0.00 52 1001.8
20260504033513 54 200 2.0 6.0 0.00 0.00 0.00 52 1002.0
20260504033034 54 269 1.0 4.0 0.00 0.00 0.00 56 1002.1
20260504032510 53 269 1.0 4.0 0.00 0.00 0.00 54 1002.2
20260504032015 53 269 1.0 3.0 0.00 0.00 0.00 54 1002.2
20260504031530 53 269 2.0 4.0 0.00 0.00 0.00 52 1002.4